User: anonymous   Login
Location: Northcutt
(34.7304°N, 84.4305°W)
Time: 17:01:44
(UTC+00:00)
Language:

Transit 4A - Orbit

View from above orbital plane
View from above orbital plane
View from above satellite
View from above satellite

Ground track
Ground track

The orbit data is extracted from the following two-line orbital elements,

1 00116U 61015A   22268.59399602  .00000012  00000-0  67966-4 0  9995
2 00116  66.8118 338.7436 0072491 151.8361 208.6669 13.91846465107329
Epoch (UTC): 25 September 2022 14:15:21
Eccentricity: 0.0072491
inclination: 66.8118°
perigee height: 869 km
apogee height: 975 km
right ascension of ascending node: 338.7436°
argument of perigee: 151.8361°
revolutions per day: 13.91846465
mean anomaly at epoch: 208.6669°
orbit number at epoch: 10732

The dashed part of the orbit path shows where the satellite is in the earth's shadow,  

DLR